Location: Unspecified
(33.9360°N, 83.4200°W)
Time: 17:42:32
(UTC-04:00)

Daily predictions for brighter satellites

Satellite Brightness Start Highest point End
(mag) Time Altitude Azimuth Time Altitude Azimuth Time Altitude Azimuth
FENGYUN 3A 3.7 20:32:50 10° SSE 20:38:11 82° ENE 20:43:33 10° N
Cosmos 1733 Rocket 4.5 20:37:30 10° NNE 20:40:52 21° ENE 20:44:13 10° SE
USA 267 3.8 20:39:12 10° NE 20:45:40 64° NW 20:52:07 10° WSW
Nadezhda 4 Rocket 4.3 20:40:39 10° N 20:46:55 74° W 20:53:13 10° S
Cosmos 1862 Rocket 4.5 20:43:23 10° SSE 20:47:12 29° E 20:51:03 10° NNE
Cosmos 1869 Rocket 4.1 20:51:48 10° NNW 20:56:14 63° W 21:00:36 10° S
Cosmos 1634 Rocket 4.1 20:50:26 10° S 20:56:43 87° E 21:03:05 10° N
Cosmos 2263 Rocket 2.8 20:55:26 10° N 21:00:35 37° ENE 21:05:10 13° SE
Cosmos 1092 Rocket 4.2 20:54:24 10° N 21:00:46 82° W 21:07:05 10° S
Spot 2 Rocket 3.5 20:55:53 10° SSE 21:00:57 72° ENE 21:06:01 10° N
Cosmos 1503 Rocket 4.0 20:59:29 10° NNW 21:04:44 72° ENE 21:09:53 10° SSE
USA 186 1.9 21:02:56 12° SSE 21:05:16 42° ENE 21:08:04 10° N
Cosmos 1939 Rocket 4.3 21:03:23 14° ESE 21:05:41 21° ENE 21:08:44 10° NNE
Resurs 1-3 3.5 21:02:32 10° SSE 21:06:54 80° ENE 21:11:18 10° N
Cosmos 2322 Rocket 2.9 21:02:58 10° SW 21:08:28 58° WNW 21:14:00 10° NNE
Cosmos 1354 Rocket 4.0 21:05:59 10° NNW 21:11:16 84° ENE 21:16:30 10° SSE
Atlas Centaur 2 2.7 21:06:32 10° WSW 21:12:40 63° S 21:19:23 14° E
H-2A R/B 3.7 21:11:58 10° S 21:15:43 48° W 21:19:29 10° NNW
Cosmos 220 Rocket 4.3 21:11:41 10° NNW 21:16:08 70° WSW 21:20:30 10° S
Cosmos 2360 Rocket 2.2 21:10:37 10° S 21:16:08 59° ESE 21:21:42 10° NNE
COSMOS 2428 3.7 21:13:57 10° SSE 21:18:28 25° ESE 21:22:59 10° NE
Cosmos 1825 2.1 21:15:30 10° N 21:19:19 88° E 21:23:06 10° S
Intercosmos 25 Rocket 3.2 21:16:30 10° S 21:19:37 76° W 21:23:31 10° N
Envisat 3.3 21:17:09 15° SE 21:21:11 47° ENE 21:26:02 10° N
Cosmos 1655 Rocket 4.0 21:16:43 10° N 21:23:05 69° E 21:29:22 10° SSE
CZ-4B DEB 3.4 21:22:33 27° ESE 21:23:22 33° ENE 21:26:08 10° N
Meteor 1-29 3.0 21:21:36 10° NNE 21:25:01 55° E 21:28:23 10° S
Cosmos 2242 Rocket 4.4 21:21:01 10° SSW 21:25:26 55° W 21:29:50 10° N
Lacrosse 4 Rocket 2.0 21:23:13 10° NNW 21:27:31 59° WSW 21:31:26 13° S
Cosmos 1408 2.9 21:24:20 10° NNW 21:27:58 64° W 21:31:34 10° S
Cosmos 1867 4.4 21:23:15 10° N 21:28:13 34° NE 21:30:53 22° ESE
Helios 1B rocket 2.3 21:24:42 10° NNE 21:28:49 84° ESE 21:32:55 10° SSW
CZ-4B DEB 4.5 21:27:23 22° SSE 21:29:29 64° ENE 21:33:00 10° N
Milstar 3 3.3 21:21:12 10° W 21:29:39 50° SSW 21:33:52 22° SE
ATLAS 5 CENTAUR R/B 2.9 21:26:02 10° NNW 21:31:56 48° NE 21:35:40 24° ESE
Cosmos 2279 Rocket 4.1 21:26:53 10° S 21:33:07 82° W 21:39:23 10° N
Cosmos 2322 3.6 21:28:08 10° SSW 21:33:49 72° ESE 21:39:30 10° NNE
SEDSat Delta rocket 3.5 21:29:48 10° W 21:34:47 68° S 21:37:59 26° ESE
SL-16 R/B 4.1 21:34:18 10° SW 21:39:19 32° WNW 21:44:22 10° N
ERS-1 Rocket 3.7 21:42:02 29° ESE 21:43:33 35° ENE 21:48:06 10° N
Sakura Rocket 3.4 21:42:30 10° WSW 21:45:59 37° S 21:46:24 36° SSE
Resurs 01 Rocket 3.6 21:44:08 10° SSW 21:47:57 28° W 21:51:47 10° NW
Cosmos 1428 Rocket 4.5 21:43:56 10° N 21:50:03 83° W 21:55:34 13° S
Centaur AC-42 3.9 21:29:49 10° W 21:50:12 33° SSW 21:53:32 22° SSE
Cosmos 2333 4.4 21:52:02 18° S 21:56:04 49° ESE 22:01:35 10° NNE
NOSS 3-1 (C) 3.6 21:54:38 30° SSE 21:56:33 39° ESE 22:02:10 10° NE
Cosmos 2333 Rocket 3.7 22:00:04 19° ENE 22:00:04 19° ENE 22:02:26 10° NE
YAOGAN 6 2.8 21:58:12 53° ENE 21:58:12 53° ENE 22:01:38 10° N
SPOT 5 4.1 21:59:59 25° ENE 21:59:59 25° ENE 22:03:37 10° NNE
Cosmos 1844 Rocket 3.8 21:57:27 10° N 22:02:01 25° ENE 22:02:44 25° ENE
Cosmos 1908 Rocket 3.4 21:57:44 10° N 22:02:04 76° E 22:02:58 54° SSE
USA 229 DEB 3.9 21:55:47 10° SW 22:02:34 72° WNW 22:09:29 10° NNE
USA 229 3.9 21:55:54 10° SW 22:02:40 73° WNW 22:09:36 10° NNE
Cosmos 2278 Rocket 4.4 22:01:45 10° NE 22:02:52 11° NE 22:03:37 10° ENE
OAO 3 Rocket 3.2 22:01:54 10° W 22:06:46 71° SSW 22:07:40 56° SE
Sich 1 Rocket 3.5 22:04:00 10° N 22:08:31 90° ESE 22:09:37 52° S
Meteor 2-10 Rocket 4.3 22:07:03 10° SSW 22:12:45 58° W 22:18:27 10° N
NOSS 3-1 (A) 4.3 22:15:19 29° ENE 22:15:19 29° ENE 22:18:49 10° NE
Cosmos 1782 Rocket 3.6 22:12:21 10° N 22:16:24 59° ENE 22:16:24 59° ENE
Cosmos 2219 Rocket 2.5 22:20:01 45° E 22:20:01 45° E 22:24:37 10° NNE
Okean 1-7 2.9 22:21:01 86° ESE 22:21:03 86° E 22:25:28 10° N
Cosmos 1777 Rocket 4.2 22:16:34 10° N 22:21:43 51° ENE 22:21:49 51° ENE
Cosmos 1782 4.3 22:30:21 28° NNE 22:30:21 28° NNE 22:32:22 10° NNE
Okean 2 Rocket 3.6 22:27:19 10° N 22:30:55 51° NNE 22:30:55 51° NNE
Nimbus 7 Rocket 4.2 22:37:11 10° NNE 22:43:10 74° ESE 22:43:21 74° ESE
Terra 3.9 22:45:02 17° NE 22:45:02 17° NE 22:46:46 10° NNE
Cosmos 2263 Rocket 4.0 22:39:51 10° NW 22:44:13 24° WSW 22:46:54 17° SW
Cosmos 1417 Rocket 4.4 22:58:13 73° ENE 22:58:13 73° ENE 23:04:09 10° N
MetOp-B 4.4 22:59:17 61° W 22:59:17 61° W 23:04:32 10° NNW
USA 234 3.1 22:59:28 76° SSE 22:59:59 83° SW 23:06:33 10° NW
Atlas Centaur 2 2.8 22:55:08 10° W 23:02:01 64° SSW 23:02:01 64° SSW
COSMOS 2428 4.0 22:57:13 10° SW 23:02:27 37° WNW 23:07:43 10° N
H-2A R/B 2.9 23:09:10 42° N 23:09:10 42° N 23:12:27 10° N
MOS 1-B Rocket 4.0 23:09:36 71° W 23:09:36 71° W 23:15:00 10° NNW
NOSS 0 Rocket 4.1 23:16:18 65° N 23:16:18 65° N 23:21:33 10° NNE
ATLAS 5 CENTAUR R/B 3.9 23:11:17 10° NW 23:16:28 28° WSW 23:17:15 27° WSW
Cosmos 1844 4.2 23:12:07 10° NNW 23:16:28 55° NNW 23:16:28 55° NNW
ARGOS 3.9 23:19:00 48° WNW 23:19:00 48° WNW 23:23:30 10° NNW
SeaSat 1 3.6 23:24:45 40° NNW 23:24:45 40° NNW 23:27:51 10° NNW
H-2A R/B 4.4 23:31:01 20° N 23:31:01 20° N 23:32:26 10° N
Cosmos 2237 Rocket 3.3 23:40:20 40° N 23:40:20 40° N 23:44:06 10° NNE
Cosmos 2333 Rocket 3.4 23:41:58 39° WNW 23:41:58 39° WNW 23:47:15 10° N
Cosmos 1844 Rocket 4.1 23:40:52 10° NW 23:44:25 31° WNW 23:44:25 31° WNW
Cosmos 2278 Rocket 3.4 23:42:05 10° NNW 23:45:29 38° NNW 23:45:29 38° NNW
